Wellsville, NY

2:38 AM EST on December 16, 2019 (GMT -0500)
Wellsville Municipal-Tarantine

Weather History for KELZ - August, 2019

Change the Weather History Date:

Tuesday, August 6, 2019

  Actual Average (KDSV) Record (KDSV)
Temperature  
Mean Temperature 72 °F -  
Max Temperature 82 °F 81 °F 101 °F (1955)
Min Temperature 64 °F 57 °F 44 °F (1951)
Cooling Degree Days 8    
Growing Degree Days 22 (Base 50)    
Moisture  
Dew Point 62 °F    
Average Humidity 77    
Maximum Humidity 96    
Minimum Humidity 52    
Precipitation  
Precipitation 0.00 in - - ()
Sea Level Pressure  
Sea Level Pressure 29.87 in    
Wind  
Wind Speed 7 mph ()    
Max Wind Speed 14 mph    
Max Gust Speed 32 mph    
Visibility 10.0 miles    
Events Rain , Thunderstorm    
Averages and records for this station are not official NWS values.
T = Trace of Precipitation, MM = Missing Value Source: Averaged Metar Reports

Daily Weather History Graph

Daily Weather History Graph

Search for Another Location

Airport or City:

Astronomy

Aug. 06, 2019 Rise Set
Actual Time 6:10 AM EDT 8:25 PM EDT
Civil Twilight 5:38 AM EDT 8:56 PM EDT
Nautical Twilight 5:00 AM EDT 9:34 PM EDT
Astronomical Twilight 4:18 AM EDT 10:16 PM EDT
Moon 12:39 PM EDT (8/6) No Moon Set
Length of Visible Light 15h 17m
Length of Day
14h 15m
Waxing Crescent, 38% of the Moon is Illuminated
Aug 6
Waxing Crescent
Aug 7
First Quarter
Aug 15
Full
Aug 23
Last Quarter
Aug 30
New

Hourly Weather History & Observations

Time (EDT) Temp. Heat Index Dew Point Humidity Pressure Visibility Wind Dir Wind Speed Gust Speed Precip Events Conditions
12:56 AM 68.0 °F - 60.1 °F 76% 29.94 in 10.0 mi SSW 10.4 mph - N/A   Clear
1:56 AM 66.9 °F - 60.1 °F 79% 29.92 in 10.0 mi SW 8.1 mph - N/A   Mostly Cloudy
2:56 AM 66.0 °F - 61.0 °F 84% 29.91 in 10.0 mi SW 10.4 mph 18.4 mph N/A   Mostly Cloudy
3:56 AM 66.0 °F - 61.0 °F 84% 29.89 in 10.0 mi SSW 9.2 mph - N/A   Clear
4:56 AM 64.9 °F - 60.1 °F 84% 29.89 in 10.0 mi SW 5.8 mph - N/A   Clear
5:56 AM 64.9 °F - 60.1 °F 84% 29.89 in 10.0 mi SW 8.1 mph - N/A   Clear
6:56 AM 64.0 °F - 60.1 °F 87% 29.90 in 10.0 mi SW 6.9 mph - N/A   Clear
7:56 AM 66.9 °F - 61.0 °F 81% 29.90 in 10.0 mi SW 4.6 mph - N/A   Clear
8:56 AM 71.1 °F - 63.0 °F 75% 29.89 in 10.0 mi SW 9.2 mph - N/A   Clear
9:56 AM 73.0 °F - 62.1 °F 68% 29.88 in 10.0 mi SW 11.5 mph - N/A   Scattered Clouds
10:56 AM 75.9 °F - 64.0 °F 67% 29.88 in 10.0 mi West 8.1 mph - N/A   Clear
11:56 AM 79.0 °F - 63.0 °F 58% 29.87 in 10.0 mi SW 10.4 mph - N/A   Clear
12:56 PM 75.9 °F - 62.1 °F 62% 29.85 in 10.0 mi SSW 10.4 mph - 0.00 in Rain Light Rain
1:56 PM 78.1 °F - 60.1 °F 54% 29.83 in 10.0 mi West 9.2 mph - 0.00 in   Mostly Cloudy
2:56 PM 81.0 °F 81.9 °F 62.1 °F 52% 29.81 in 10.0 mi West 10.4 mph - N/A   Clear
3:56 PM 77.0 °F - 64.0 °F 64% 29.80 in 10.0 mi NNE 9.2 mph - N/A   Mostly Cloudy
4:37 PM 75.0 °F - - N/A% 29.85 in - North - - N/A Thunderstorm Unknown
4:56 PM 70.0 °F - 62.1 °F 76% 29.84 in 10.0 mi NNW 13.8 mph 32.2 mph N/A Thunderstorm Unknown
5:17 PM 69.1 °F - 62.1 °F 78% 29.87 in 10.0 mi North 10.4 mph 20.7 mph N/A   Scattered Clouds
5:56 PM 68.0 °F - 61.0 °F 78% 29.84 in 10.0 mi Variable 3.5 mph - N/A   Partly Cloudy
6:56 PM 69.1 °F - 63.0 °F 81% 29.85 in 10.0 mi Variable 3.5 mph - N/A   Mostly Cloudy
7:56 PM 68.0 °F - 62.1 °F 81% 29.85 in 10.0 mi Variable 4.6 mph - N/A   Mostly Cloudy
8:56 PM 66.9 °F - 63.0 °F 87% 29.84 in 10.0 mi Calm Calm - N/A   Overcast
9:56 PM 66.9 °F - 63.0 °F 87% 29.85 in 10.0 mi SSE 3.5 mph - N/A   Mostly Cloudy
10:56 PM 64.9 °F - 63.0 °F 93% 29.85 in 10.0 mi SSE 3.5 mph - N/A   Mostly Cloudy
11:56 PM 64.0 °F - 63.0 °F 96% 29.83 in 10.0 mi SE 4.6 mph - N/A   Partly Cloudy